Location: Sweet Grass
(48.9965°N, 111.9649°W)
Time: 20:11:15
(UTC+00:00)

SPROUT - Pass Details

Date: 06 April 2023
Orbit: 557 x 566 km, 98.0° (Epoch: 31 May)

Event Time Altitude Azimuth Distance (km) Brightness Sun altitude
Rises 23:33:23 0° 354° (N) 2,777 ? 23.7°
Enters shadow 00:23:19 -78° 148° (SSE) 13,070 ? 15.7°
Exits shadow 00:57:19 -24° 34° (NE) 6,484 ? 10.2°
